Wind_Speed
19 19 20 20 20 20 21 21 21 21 21 21 21 22 22 23 23 24 24 25 26 27 28 28 29 30 31 32 33 34 34 35 36 37 37 37 37 38
21 21 22 22 22 22 23 23 23 23 23 23 23 23 23 24 24 24 25 25 26 27 28 29 30 31 32 33 34 35 35 36 38 39 39 39 39 38
23 23 23 24 24 24 24 24 25 25 25 25 26 25 25 25 25 25 26 26 27 27 28 29 30 31 32 34 35 36 37 38 38 40 41 42 41 40
25 25 25 25 26 26 26 26 26 27 27 27 27 27 27 27 27 27 27 27 27 28 29 29 30 31 32 33 34 36 37 38 39 41 42 43 44 43
27 27 27 27 27 28 28 28 28 28 28 28 28 28 28 28 28 29 29 29 29 29 29 30 30 31 32 33 34 35 36 38 39 41 42 43 44 44
29 29 29 29 29 30 30 30 30 30 29 29 29 30 30 30 30 30 30 30 30 31 31 31 31 32 32 33 34 35 36 37 39 40 41 43 44 45
30 31 31 31 31 31 31 31 31 31 31 31 31 31 32 32 32 31 31 31 32 32 32 32 33 33 33 33 34 35 36 37 38 40 42 43 43 44
32 32 33 33 33 33 33 33 33 33 33 33 33 33 33 34 34 33 33 33 33 34 34 33 34 34 34 35 35 35 35 36 38 39 41 42 44 45
33 34 34 34 34 34 34 34 34 35 35 35 34 34 35 35 36 35 35 35 35 35 36 35 35 35 35 35 35 35 36 36 37 39 39 41 43 44
35 35 35 35 36 36 36 36 36 37 37 37 36 36 37 38 38 38 37 37 37 37 38 37 37 36 36 36 37 37 37 37 38 39 39 40 41 43
37 38 38 37 37 38 38 38 39 39 40 40 39 39 39 39 40 40 40 40 39 39 39 39 38 37 37 37 37 37 37 37 38 38 39 40 41 42
39 40 39 39 39 40 40 41 41 42 43 42 42 41 41 41 41 41 42 42 41 40 40 40 39 38 37 37 37 37 37 37 38 39 39 40 41 42
41 41 41 41 41 42 43 44 44 45 45 45 44 44 44 44 44 43 43 43 42 41 41 41 40 39 38 37 37 37 37 38 38 38 39 40 41 41
44 44 44 45 45 46 46 47 47 48 48 48 47 47 46 45 45 44 44 44 43 42 41 41 40 40 39 38 37 37 38 38 38 38 39 40 41 41
46 47 48 49 50 50 50 50 50 51 51 50 50 49 48 47 47 46 45 44 43 41 40 40 40 40 39 39 38 37 37 38 39 39 40 40 41 42
50 51 51 52 53 53 54 53 53 53 53 53 51 50 49 49 48 47 46 45 43 41 40 40 40 39 39 38 38 37 37 38 39 39 40 40 41 42
54 55 56 56 56 56 56 56 55 54 54 54 53 51 50 50 48 47 46 45 44 42 40 40 39 40 39 38 38 37 38 38 38 38 39 40 40 41
57 57 58 58 58 58 58 57 56 55 55 54 53 52 51 49 48 46 45 44 43 42 40 40 40 39 38 37 37 37 37 36 36 37 38 38 38 38
59 59 59 59 59 59 58 57 56 55 54 53 52 50 49 48 47 45 44 43 42 40 39 39 39 38 38 36 35 37 37 36 35 36 36 37 37 37
60 60 59 59 58 57 55 53 52 51 50 50 48 47 46 46 45 44 42 41 40 39 38 37 38 38 37 36 35 35 35 35 35 35 35 36 36 37
59 58 58 56 55 53 51 50 49 47 46 46 45 45 44 43 41 40 39 37 37 36 36 35 36 36 36 35 33 32 33 34 34 34 34 34 35 35
56 55 54 52 50 49 47 46 45 44 42 42 42 41 41 39 38 37 36 35 35 34 34 34 34 34 34 33 32 32 32 32 33 33 33 33 33 33
53 51 49 48 46 44 44 43 41 40 39 38 38 37 36 35 34 34 33 33 33 33 33 33 32 32 32 32 32 31 30 30 31 31 30 31 31 32
Wind_Direction
313 313 312 313 313 314 314 314 314 314 314 313 312 309 305 302 299 295 292 288 285 281 278 275 273 269 266 264 262 260 258 255 253 252 251 250 248 248
308 308 309 309 309 310 310 310 311 310 311 311 311 310 308 304 300 296 294 290 287 284 281 278 275 272 269 266 262 261 260 257 254 252 252 251 251 250
305 305 306 306 307 307 307 308 308 308 308 308 309 309 307 305 302 298 295 292 289 286 284 281 278 275 271 268 265 262 260 258 256 254 252 251 251 251
302 302 303 303 304 305 305 306 306 306 305 305 306 306 305 304 302 300 297 294 291 287 284 283 281 278 274 271 268 264 261 259 258 256 254 252 251 251
299 299 300 301 302 302 303 304 304 304 304 304 304 303 303 302 302 300 298 296 293 289 285 283 282 280 277 274 271 267 264 261 258 256 255 254 253 251
297 297 298 299 299 299 300 300 301 302 302 302 302 302 301 301 301 300 299 297 294 291 288 285 282 281 279 276 273 269 267 263 260 258 256 255 253 251
295 295 295 295 297 297 298 299 298 299 299 300 301 300 300 300 300 299 298 297 295 292 290 287 284 281 279 277 275 272 269 266 262 259 257 255 254 253
292 293 294 294 295 296 296 297 297 296 297 298 299 299 299 299 299 299 298 297 296 293 291 288 285 281 279 277 275 273 271 268 265 262 259 257 255 254
292 293 293 292 292 293 294 295 295 295 295 296 297 298 298 298 298 298 297 296 295 293 291 288 285 283 279 277 275 273 271 269 266 264 261 259 256 254
291 292 293 293 292 292 292 293 294 294 294 295 295 296 297 296 296 296 295 295 294 294 292 289 286 283 280 278 276 273 271 269 266 264 262 260 257 255
290 291 292 292 291 291 291 292 293 292 293 293 293 294 294 294 294 294 294 293 293 292 290 288 286 283 281 279 277 274 272 269 267 265 262 260 258 256
291 291 291 291 291 291 291 292 292 292 292 292 293 292 293 292 292 292 292 292 292 291 289 287 285 283 280 278 276 275 272 270 267 266 263 261 260 258
291 291 291 290 290 291 292 292 292 291 291 291 292 292 292 291 290 290 290 290 291 290 288 286 285 283 281 278 276 274 272 270 268 266 265 263 261 259
291 292 292 292 292 292 292 291 291 291 290 290 290 290 290 289 288 288 288 288 289 288 286 285 284 282 280 279 277 274 273 271 269 267 264 263 261 260
291 291 291 291 292 292 292 292 291 291 290 289 289 289 288 286 286 286 286 286 286 285 284 283 283 281 279 278 277 275 273 271 270 268 265 263 262 260
292 292 292 292 292 292 292 291 291 290 289 288 288 286 286 285 285 285 285 285 284 282 282 281 281 280 279 278 277 275 274 272 271 269 267 264 262 260
293 293 293 292 292 291 291 290 289 288 287 287 286 285 284 284 283 283 284 283 282 281 280 279 277 277 276 277 277 275 274 272 271 269 267 265 263 261
294 293 293 293 292 292 291 289 288 287 286 285 285 284 283 282 282 281 281 280 279 278 278 277 276 275 275 276 276 274 274 273 271 269 268 266 263 260
294 294 293 292 292 291 290 289 287 286 286 285 284 282 281 280 279 279 278 277 276 275 275 274 274 274 274 273 272 273 274 273 271 270 268 266 263 259
294 294 294 293 292 291 290 288 287 285 284 283 281 280 279 278 277 276 275 275 274 273 272 272 273 273 273 273 271 272 273 273 272 271 269 266 264 261
295 295 295 294 292 291 289 288 286 284 283 281 280 278 277 275 274 273 272 271 271 271 271 271 272 272 271 272 272 272 273 274 273 271 268 265 264 261
296 296 295 294 292 290 288 287 285 284 282 280 279 277 275 273 272 270 269 268 268 268 269 269 270 271 270 272 273 274 274 273 272 270 268 265 264 261
297 296 295 293 291 288 287 287 286 284 281 280 278 276 273 270 268 267 267 266 266 266 267 267 268 269 270 272 273 274 274 273 271 270 268 266 264 260
Height
5863 5861 5860 5858 5857 5855 5853 5852 5850 5848 5846 5845 5843 5841 5839 5837 5836 5834 5833 5832 5831 5831 5831 5831 5832 5833 5834 5835 5836 5838 5840 5842 5844 5847 5849 5851 5854 5857
5859 5857 5856 5854 5853 5851 5849 5847 5845 5843 5841 5839 5838 5836 5834 5832 5830 5829 5827 5826 5825 5824 5823 5823 5823 5824 5825 5826 5827 5829 5830 5832 5834 5837 5839 5842 5845 5848
5855 5853 5851 5850 5848 5846 5844 5842 5840 5838 5836 5834 5832 5830 5828 5826 5824 5822 5820 5819 5818 5816 5816 5815 5815 5815 5815 5816 5817 5819 5820 5822 5824 5826 5829 5832 5835 5838
5849 5848 5846 5844 5842 5840 5839 5836 5834 5832 5830 5828 5825 5823 5821 5819 5817 5815 5813 5812 5810 5809 5808 5807 5806 5806 5806 5806 5807 5808 5809 5811 5813 5815 5818 5821 5824 5826
5843 5842 5840 5838 5836 5834 5832 5830 5828 5825 5823 5821 5819 5816 5814 5812 5810 5808 5805 5804 5802 5800 5799 5799 5798 5797 5796 5796 5797 5797 5798 5800 5802 5804 5806 5808 5811 5815
5836 5835 5833 5831 5829 5827 5825 5823 5821 5818 5816 5814 5811 5809 5806 5804 5802 5800 5798 5795 5793 5792 5790 5789 5788 5787 5787 5786 5786 5787 5787 5788 5790 5792 5794 5796 5799 5802
5829 5827 5826 5824 5822 5819 5817 5815 5813 5810 5808 5806 5803 5801 5798 5796 5793 5791 5789 5787 5785 5783 5781 5780 5779 5778 5777 5776 5776 5776 5776 5777 5778 5779 5781 5783 5786 5789
5821 5819 5817 5815 5813 5811 5809 5806 5804 5802 5799 5797 5795 5792 5789 5786 5784 5781 5779 5777 5776 5773 5771 5770 5768 5768 5766 5766 5766 5765 5765 5765 5766 5767 5769 5771 5773 5776
5812 5810 5808 5806 5804 5802 5799 5797 5795 5792 5790 5787 5785 5782 5780 5777 5774 5772 5769 5767 5765 5763 5760 5760 5758 5757 5756 5755 5754 5754 5754 5754 5754 5755 5756 5758 5760 5763
5803 5801 5798 5796 5794 5791 5789 5787 5785 5783 5780 5777 5775 5772 5769 5766 5763 5761 5758 5756 5755 5752 5749 5748 5747 5745 5744 5743 5743 5742 5742 5742 5742 5743 5744 5746 5747 5750
5792 5790 5788 5786 5784 5781 5779 5777 5774 5772 5768 5766 5764 5762 5759 5756 5752 5750 5747 5745 5743 5741 5738 5736 5735 5733 5733 5732 5730 5730 5730 5730 5730 5730 5731 5733 5734 5736
5782 5779 5777 5774 5772 5769 5767 5765 5763 5760 5757 5754 5752 5749 5747 5744 5741 5738 5735 5732 5730 5729 5726 5723 5722 5721 5720 5720 5718 5717 5717 5717 5718 5718 5719 5720 5721 5723
5770 5767 5765 5762 5760 5757 5754 5752 5750 5746 5744 5741 5739 5736 5734 5731 5728 5725 5722 5719 5717 5716 5713 5710 5709 5707 5707 5707 5706 5705 5705 5705 5705 5706 5706 5707 5708 5710
5757 5755 5752 5749 5746 5744 5741 5738 5735 5732 5729 5727 5725 5722 5720 5717 5715 5712 5709 5706 5704 5702 5700 5697 5695 5694 5693 5693 5693 5693 5692 5692 5693 5693 5694 5694 5695 5697
5744 5742 5739 5735 5732 5729 5726 5722 5719 5716 5713 5711 5709 5707 5705 5702 5699 5697 5695 5693 5690 5688 5686 5684 5682 5681 5680 5679 5680 5680 5680 5679 5679 5680 5680 5681 5682 5683
5730 5727 5724 5720 5716 5713 5709 5706 5702 5699 5696 5694 5692 5690 5688 5686 5684 5682 5680 5678 5676 5675 5673 5671 5669 5668 5667 5666 5666 5666 5666 5666 5666 5666 5666 5667 5668 5669
5714 5710 5707 5703 5699 5696 5692 5688 5685 5682 5679 5676 5674 5673 5671 5669 5668 5666 5665 5663 5661 5661 5660 5658 5656 5655 5654 5654 5653 5653 5653 5653 5653 5652 5652 5653 5655 5656
5696 5693 5689 5685 5681 5677 5673 5670 5667 5663 5661 5658 5656 5655 5653 5652 5651 5650 5648 5647 5646 5646 5645 5644 5642 5642 5641 5641 5641 5640 5640 5640 5640 5639 5639 5640 5642 5643
5679 5675 5670 5666 5662 5658 5654 5651 5648 5645 5642 5640 5638 5637 5635 5634 5633 5633 5632 5631 5631 5631 5631 5630 5629 5628 5628 5629 5629 5627 5627 5627 5627 5627 5626 5627 5628 5630
5661 5656 5652 5647 5643 5639 5635 5632 5629 5626 5624 5622 5620 5619 5618 5617 5616 5616 5616 5616 5616 5616 5616 5616 5616 5615 5615 5615 5616 5616 5615 5614 5614 5614 5614 5614 5615 5617
5642 5637 5633 5628 5624 5620 5617 5614 5611 5609 5607 5605 5603 5602 5601 5601 5601 5601 5602 5602 5602 5602 5603 5604 5603 5603 5602 5603 5603 5604 5603 5602 5602 5602 5602 5603 5604 5605
5625 5620 5615 5610 5606 5603 5599 5597 5594 5592 5590 5589 5588 5587 5586 5586 5587 5587 5588 5589 5589 5590 5591 5591 5592 5591 5591 5591 5592 5592 5592 5592 5591 5591 5591 5592 5592 5593
5608 5603 5599 5594 5590 5587 5584 5581 5579 5578 5576 5574 5573 5573 5573 5573 5574 5574 5575 5576 5577 5578 5579 5579 5580 5581 5581 5581 5581 5581 5581 5581 5580 5580 5581 5581 5581 5583